Weather History for Tri-Cities, TN

Change the Weather History Date:

Friday, October 19, 2012

  Actual Average Record
Temperature  
Mean Temperature 53 °F 55 °F  
Max Temperature 67 °F 68 °F 84 °F (1938)
Min Temperature 39 °F 42 °F 24 °F (1948)
Degree Days  
Heating Degree Days 12 10  
Month to date heating degree days 153 141  
Since 1 July heating degree days 197 194  
Cooling Degree Days 0 0  
Month to date cooling degree days 10 9  
Year to date cooling degree days 1191 977  
Growing Degree Days 2 (Base 50)    
Moisture  
Dew Point 37 °F    
Average Humidity 57    
Maximum Humidity 92    
Minimum Humidity 22    
Precipitation  
Precipitation 0.00 in 0.06 in 0.91 in (2004)
Month to date precipitation 2.34 1.24  
Year to date precipitation 41.00 33.68  
Snow  
Snow 0.00 in 0.00 in - ()
Month to date snowfall 0.0 0.0  
Since 1 July snowfall 0.0 0.0  
Since 1 September snowfall 0.0 0.0  
Snow Depth 0.00 in    
Sea Level Pressure  
Sea Level Pressure 29.72 in    
Wind  
Wind Speed 7 mph (SW)    
Max Wind Speed 24 mph    
Max Gust Speed 33 mph    
Visibility 10 miles    
Events      
T = Trace of Precipitation, MM = Missing Value Source: NWS Daily Summary

Daily Weather History Graph

Daily Weather History Graph

Search for Another Location

Airport:

Trip Planner

Search our weather history database for the weather conditions in past years. The results will help you decide how hot, cold, wet, or windy it might be!

Date:

Astronomy

Oct. 19, 2012 Rise Set
Actual Time 7:40 AM EDT 6:47 PM EDT
Civil Twilight 7:14 AM EDT 7:13 PM EDT
Nautical Twilight 6:44 AM EDT 7:43 PM EDT
Astronomical Twilight 6:14 AM EDT 8:13 PM EDT
Moon 12:16 PM EDT (10/19) 10:29 PM EDT (10/19)
Length of Visible Light 11h 58m
Length of Day
11h 06m
Waxing Crescent, 23% of the Moon is Illuminated
Oct 19
Waxing Crescent
Oct 21
First Quarter
Oct 29
Full
Nov 6
Last Quarter
Nov 13
New

Hourly Weather History & Observations

Time (EDT) Temp. Dew Point Humidity Pressure Visibility Wind Dir Wind Speed Gust Speed Precip Events Conditions
12:53 AM 55.9 °F 48.9 °F 77% 29.76 in 10.0 mi SW 4.6 mph - N/A   Overcast
1:53 AM 55.0 °F 46.0 °F 72% 29.76 in 10.0 mi SW 6.9 mph - N/A   Overcast
2:53 AM 53.1 °F 44.1 °F 71% 29.75 in 10.0 mi Calm Calm - N/A   Mostly Cloudy
3:53 AM 48.0 °F 43.0 °F 83% 29.75 in 10.0 mi Calm Calm - N/A   Partly Cloudy
4:53 AM 46.0 °F 41.0 °F 83% 29.73 in 10.0 mi Calm Calm - N/A   Clear
5:53 AM 43.0 °F 39.9 °F 89% 29.73 in 10.0 mi Calm Calm - N/A   Clear
6:53 AM 41.0 °F 37.9 °F 89% 29.74 in 10.0 mi Calm Calm - N/A   Clear
7:53 AM 39.9 °F 37.9 °F 93% 29.75 in 10.0 mi Calm Calm - N/A   Clear
8:53 AM 48.0 °F 42.1 °F 80% 29.75 in 10.0 mi Calm Calm - N/A   Clear
9:53 AM 53.1 °F 43.0 °F 69% 29.75 in 10.0 mi Calm Calm - N/A   Clear
10:53 AM 60.1 °F 37.9 °F 44% 29.74 in 10.0 mi SSW 4.6 mph - N/A   Clear
11:53 AM 63.0 °F 30.0 °F 29% 29.72 in 10.0 mi SSW 15.0 mph 20.7 mph N/A   Partly Cloudy
12:53 PM 64.9 °F 25.0 °F 22% 29.70 in 10.0 mi SW 18.4 mph 24.2 mph N/A   Partly Cloudy
1:53 PM 66.0 °F 28.0 °F 24% 29.67 in 10.0 mi WSW 19.6 mph 31.1 mph N/A   Partly Cloudy
2:53 PM 66.9 °F 28.9 °F 24% 29.65 in 10.0 mi WSW 15.0 mph 27.6 mph N/A   Partly Cloudy
3:53 PM 66.0 °F 28.9 °F 25% 29.65 in 10.0 mi WSW 15.0 mph - N/A   Partly Cloudy
4:53 PM 66.0 °F 30.9 °F 27% 29.65 in 10.0 mi WSW 15.0 mph 19.6 mph N/A   Partly Cloudy
5:53 PM 63.0 °F 30.9 °F 30% 29.66 in 10.0 mi WSW 12.7 mph 19.6 mph N/A   Scattered Clouds
6:53 PM 61.0 °F 32.0 °F 34% 29.69 in 10.0 mi West 10.4 mph - N/A   Mostly Cloudy
7:53 PM 59.0 °F 36.0 °F 42% 29.71 in 10.0 mi SW 6.9 mph - N/A   Mostly Cloudy
8:53 PM 57.9 °F 37.9 °F 47% 29.73 in 10.0 mi SSW 3.5 mph - N/A   Mostly Cloudy
9:53 PM 57.0 °F 37.9 °F 49% 29.73 in 10.0 mi WSW 3.5 mph - N/A   Overcast
10:53 PM 57.9 °F 37.0 °F 46% 29.73 in 10.0 mi WSW 5.8 mph - N/A   Overcast
11:53 PM 57.0 °F 37.9 °F 49% 29.73 in 10.0 mi West 4.6 mph - N/A   Overcast